• en France
  • Liste des pays
  • À 7 jours
  • Température de l'eau
  • Carte satellitaire
  • Carte météo
  • Widgets météo
  • user-avatar
    Se connecter

    Météo par heure à San Luis

    Ce jour, 14 Novembre, Mercredi

    Heure Température Précipitation Vent Pression Humidité
    00:00 +15°C° 0 mm 2 m/s 697 mmHg 38%
    01:00 +14°C° 0 mm 2 m/s 697 mmHg 37%
    02:00 +14°C° 0 mm 2 m/s 696 mmHg 37%
    03:00 +14°C° 0 mm 2 m/s 696 mmHg 38%
    04:00 +13°C° 0 mm 2 m/s 696 mmHg 39%
    05:00 +13°C° 0 mm 1 m/s 696 mmHg 41%
    06:00 +15°C° 0 mm 2 m/s 697 mmHg 36%
    07:00 +18°C° 0 mm 2 m/s 698 mmHg 31%
    08:00 +20°C° 0 mm 2 m/s 699 mmHg 26%
    09:00 +21°C° 0 mm 3 m/s 699 mmHg 23%
    10:00 +24°C° 0 mm 3 m/s 699 mmHg 20%
    11:00 +25°C° 0 mm 3 m/s 699 mmHg 17%
    12:00 +26°C° 0 mm 3 m/s 699 mmHg 16%
    13:00 +27°C° 0 mm 2 m/s 698 mmHg 14%
    14:00 +28°C° 0 mm 2 m/s 698 mmHg 13%
    15:00 +28°C° 0 mm 2 m/s 697 mmHg 13%
    16:00 +28°C° 0 mm 2 m/s 696 mmHg 12%
    17:00 +28°C° 0 mm 1 m/s 696 mmHg 12%
    18:00 +26°C° 0 mm 2 m/s 696 mmHg 15%
    19:00 +24°C° 0 mm 2 m/s 695 mmHg 18%
    20:00 +21°C° 0 mm 3 m/s 695 mmHg 20%
    21:00 +21°C° 0 mm 3 m/s 695 mmHg 22%
    22:00 +20°C° 0 mm 4 m/s 695 mmHg 23%
    23:00 +20°C° 0 mm 5 m/s 695 mmHg 24%

    Demain, 15 Novembre, Jeudi

    Heure Température Précipitation Vent Pression Humidité
    00:00 +20°C° 0 mm 6 m/s 695 mmHg 24%
    01:00 +20°C° 0 mm 7 m/s 694 mmHg 24%
    02:00 +20°C° 0 mm 8 m/s 694 mmHg 23%
    03:00 +20°C° 0 mm 8 m/s 694 mmHg 27%
    04:00 +20°C° 0 mm 8 m/s 693 mmHg 31%
    05:00 +18°C° 0 mm 9 m/s 693 mmHg 35%
    06:00 +21°C° 0 mm 9 m/s 694 mmHg 34%
    07:00 +23°C° 0 mm 8 m/s 695 mmHg 32%
    08:00 +26°C° 0 mm 8 m/s 695 mmHg 30%
    09:00 +27°C° 0 mm 7 m/s 696 mmHg 27%
    10:00 +29°C° 0 mm 6 m/s 696 mmHg 25%
    11:00 +30°C° 0 mm 5 m/s 697 mmHg 22%
    12:00 +30°C° 0 mm 4 m/s 696 mmHg 22%
    13:00 +32°C° 0 mm 4 m/s 696 mmHg 21%
    14:00 +32°C° 0 mm 4 m/s 696 mmHg 21%
    15:00 +32°C° 0 mm 5 m/s 695 mmHg 22%
    16:00 +30°C° 0 mm 7 m/s 695 mmHg 24%
    17:00 +29°C° 0 mm 8 m/s 695 mmHg 25%
    18:00 +27°C° 0 mm 9 m/s 695 mmHg 30%
    19:00 +24°C° 0 mm 9 m/s 696 mmHg 35%
    20:00 +22°C° 0 mm 9 m/s 697 mmHg 40%
    21:00 +21°C° 0 mm 10 m/s 697 mmHg 45%
    22:00 +19°C° 0 mm 10 m/s 698 mmHg 49%
    23:00 +18°C° 0 mm 10 m/s 699 mmHg 53%

    Après-demain, 16 Novembre, Vendredi

    Heure Température Précipitation Vent Pression Humidité
    00:00 +17°C° 0 mm 10 m/s 698 mmHg 57%
    01:00 +17°C° 0 mm 9 m/s 698 mmHg 61%
    02:00 +16°C° 0 mm 8 m/s 698 mmHg 65%
    03:00 +16°C° 0.1 mm 8 m/s 698 mmHg 67%
    04:00 +15°C° 0.1 mm 7 m/s 697 mmHg 69%
    05:00 +15°C° 0.1 mm 7 m/s 697 mmHg 70%
    06:00 +17°C° 0 mm 7 m/s 697 mmHg 63%
    07:00 +20°C° 0 mm 8 m/s 698 mmHg 57%
    08:00 +22°C° 0 mm 8 m/s 698 mmHg 50%
    09:00 +24°C° 0 mm 8 m/s 698 mmHg 44%
    10:00 +27°C° 0 mm 9 m/s 698 mmHg 38%
    11:00 +29°C° 0 mm 9 m/s 698 mmHg 32%
    12:00 +31°C° 0 mm 9 m/s 697 mmHg 30%
    13:00 +32°C° 0 mm 9 m/s 696 mmHg 28%
    14:00 +33°C° 0 mm 9 m/s 695 mmHg 26%
    15:00 +33°C° 0 mm 9 m/s 694 mmHg 26%
    16:00 +33°C° 0 mm 8 m/s 694 mmHg 27%
    17:00 +33°C° 0 mm 8 m/s 693 mmHg 27%
    18:00 +30°C° 0.2 mm 7 m/s 693 mmHg 33%
    19:00 +28°C° 0.2 mm 7 m/s 693 mmHg 39%
    20:00 +26°C° 0.2 mm 7 m/s 693 mmHg 46%
    21:00 +26°C° 0.1 mm 7 m/s 693 mmHg 47%
    22:00 +24°C° 0.1 mm 8 m/s 693 mmHg 48%
    23:00 +24°C° 0.1 mm 8 m/s 693 mmHg 49%

    17 Novembre, Samedi

    Heure Température Précipitation Vent Pression Humidité
    00:00 +24°C° 0.1 mm 9 m/s 692 mmHg 50%
    01:00 +23°C° 0.1 mm 10 m/s 692 mmHg 51%
    02:00 +23°C° 0.1 mm 11 m/s 691 mmHg 52%
    03:00 +23°C° 0 mm 10 m/s 692 mmHg 52%
    04:00 +22°C° 0 mm 9 m/s 692 mmHg 53%
    05:00 +22°C° 0 mm 8 m/s 692 mmHg 53%
    06:00 +22°C° 0 mm 8 m/s 693 mmHg 55%
    07:00 +21°C° 0 mm 8 m/s 694 mmHg 56%
    08:00 +21°C° 0 mm 9 m/s 696 mmHg 57%
    09:00 +21°C° 0 mm 9 m/s 696 mmHg 51%
    10:00 +22°C° 0 mm 10 m/s 697 mmHg 46%
    11:00 +22°C° 0 mm 10 m/s 698 mmHg 41%
    12:00 +22°C° 0 mm 11 m/s 697 mmHg 37%
    13:00 +23°C° 0 mm 11 m/s 697 mmHg 33%
    14:00 +23°C° 0 mm 11 m/s 697 mmHg 29%
    15:00 +23°C° 0 mm 11 m/s 697 mmHg 28%
    16:00 +22°C° 0 mm 10 m/s 697 mmHg 26%
    17:00 +22°C° 0 mm 10 m/s 697 mmHg 25%
    18:00 +19°C° 0 mm 9 m/s 698 mmHg 27%
    19:00 +18°C° 0 mm 8 m/s 698 mmHg 28%
    20:00 +16°C° 0 mm 7 m/s 699 mmHg 30%
    21:00 +15°C° 0 mm 6 m/s 699 mmHg 31%
    22:00 +15°C° 0 mm 5 m/s 700 mmHg 32%
    23:00 +14°C° 0 mm 4 m/s 700 mmHg 33%

    18 Novembre, Dimanche

    Heure Température Précipitation Vent Pression Humidité
    00:00 +14°C° 0 mm 4 m/s 700 mmHg 34%
    01:00 +13°C° 0 mm 3 m/s 699 mmHg 35%
    02:00 +14°C° 0 mm 2 m/s 699 mmHg 36%
    03:00 +13°C° 0 mm 2 m/s 699 mmHg 36%
    04:00 +13°C° 0 mm 2 m/s 699 mmHg 35%
    05:00 +13°C° 0 mm 2 m/s 699 mmHg 35%
    06:00 +14°C° 0 mm 3 m/s 700 mmHg 31%
    07:00 +17°C° 0 mm 3 m/s 701 mmHg 27%
    08:00 +19°C° 0 mm 4 m/s 702 mmHg 23%
    09:00 +20°C° 0 mm 3 m/s 702 mmHg 22%
    10:00 +22°C° 0 mm 3 m/s 702 mmHg 20%
    11:00 +24°C° 0 mm 2 m/s 702 mmHg 19%
    12:00 +25°C° 0 mm 2 m/s 701 mmHg 17%
    13:00 +27°C° 0 mm 2 m/s 701 mmHg 16%
    14:00 +28°C° 0 mm 2 m/s 700 mmHg 14%
    15:00 +28°C° 0 mm 2 m/s 700 mmHg 14%
    16:00 +28°C° 0 mm 2 m/s 699 mmHg 13%
    17:00 +29°C° 0 mm 2 m/s 699 mmHg 13%
    18:00 +27°C° 0 mm 3 m/s 699 mmHg 16%
    19:00 +24°C° 0 mm 3 m/s 699 mmHg 20%
    20:00 +21°C° 0 mm 4 m/s 699 mmHg 23%
    21:00 +21°C° 0 mm 4 m/s 699 mmHg 25%
    22:00 +20°C° 0 mm 4 m/s 699 mmHg 28%
    23:00 +20°C° 0 mm 5 m/s 699 mmHg 30%

    19 Novembre, Lundi

    Heure Température Précipitation Vent Pression Humidité
    00:00 +20°C° 0 mm 6 m/s 698 mmHg 31%
    01:00 +20°C° 0 mm 7 m/s 698 mmHg 32%
    02:00 +19°C° 0 mm 9 m/s 698 mmHg 33%
    03:00 +19°C° 0 mm 9 m/s 697 mmHg 34%
    04:00 +18°C° 0 mm 8 m/s 697 mmHg 34%
    05:00 +18°C° 0 mm 8 m/s 697 mmHg 35%
    06:00 +19°C° 0 mm 9 m/s 698 mmHg 33%
    07:00 +22°C° 0 mm 9 m/s 698 mmHg 30%
    08:00 +24°C° 0 mm 9 m/s 699 mmHg 28%
    09:00 +26°C° 0 mm 9 m/s 698 mmHg 26%
    10:00 +28°C° 0 mm 9 m/s 698 mmHg 23%
    11:00 +31°C° 0 mm 9 m/s 698 mmHg 20%
    12:00 +32°C° 0 mm 10 m/s 697 mmHg 19%
    13:00 +33°C° 0 mm 10 m/s 696 mmHg 18%
    14:00 +34°C° 0 mm 10 m/s 695 mmHg 17%
    15:00 +33°C° 0 mm 10 m/s 694 mmHg 19%
    16:00 +33°C° 0 mm 10 m/s 693 mmHg 20%
    17:00 +33°C° 0 mm 10 m/s 693 mmHg 21%
    18:00 +31°C° 0 mm 9 m/s 693 mmHg 26%
    19:00 +28°C° 0 mm 9 m/s 693 mmHg 31%
    20:00 +26°C° 0 mm 8 m/s 693 mmHg 36%
    21:00 +24°C° 0 mm 9 m/s 693 mmHg 38%
    22:00 +24°C° 0 mm 10 m/s 694 mmHg 40%
    23:00 +23°C° 0 mm 11 m/s 694 mmHg 42%
    Voir plus